�N����,����,�~����,�C��,���x,�C��,����,���ϕ���,�ő�u�ԕ���,�ő厞����,���˗�,�I�_���x,�n�����x,�ő啗���N��,DTYPE
"23/12/28","00:10",0.0,5.2,89.0,1022.0,324.7,3.6,5.1,335.3,0.00,3.6,7.4,"00:08:16",1
"23/12/28","00:20",0.0,5.0,89.3,1022.0,324.3,3.1,5.7,309.8,0.00,3.4,7.2,"00:16:56",1
"23/12/28","00:30",0.0,4.3,89.5,1022.0,324.5,2.1,3.1,318.3,0.00,2.8,7.1,"00:26:00",1
"23/12/28","00:40",0.0,3.9,89.9,1022.3,307.7,1.6,2.8,316.9,0.00,2.4,7.3,"00:30:08",1
"23/12/28","00:50",0.0,3.8,90.3,1022.0,310.7,1.6,2.8,342.8,0.00,2.4,7.1,"00:48:16",1
"23/12/28","01:00",0.0,3.7,90.5,1022.0,311.0,1.3,3.1,332.0,0.00,2.3,7.4,"00:50:40",1
"23/12/28","01:10",0.0,3.5,91.2,1022.0,304.5,1.2,3.4,320.9,0.00,2.2,7.2,"01:08:08",1
"23/12/28","01:20",0.0,3.6,91.3,1022.0,319.0,1.6,2.9,347.3,0.00,2.4,7.1,"01:14:16",1
"23/12/28","01:30",0.0,3.5,91.7,1022.3,326.4,2.0,3.6,327.0,0.00,2.3,7.0,"01:20:26",1
"23/12/28","01:40",0.0,3.4,92.0,1021.8,330.6,2.2,3.6,325.9,0.00,2.3,7.1,"01:39:04",1
"23/12/28","01:50",0.0,3.8,92.4,1022.5,310.7,2.1,3.4,316.8,0.00,2.7,7.2,"01:48:10",1
"23/12/28","02:00",0.0,3.5,92.6,1022.3,329.8,2.1,2.9,328.0,0.00,2.5,7.2,"01:54:00",1
"23/12/28","02:10",0.0,3.7,92.7,1022.0,333.3,2.5,4.9,343.2,0.00,2.7,7.1,"02:08:16",1
"23/12/28","02:20",0.0,3.9,92.8,1022.0,323.4,2.7,5.8,323.5,0.00,2.9,6.9,"02:15:38",1
"23/12/28","02:30",0.0,3.6,92.8,1022.0,319.5,1.7,2.7,322.0,0.00,2.6,7.1,"02:22:48",1
"23/12/28","02:40",0.0,3.4,93.0,1022.3,313.6,2.3,4.0,315.9,0.00,2.4,6.9,"02:33:28",1
"23/12/28","02:50",0.0,3.4,92.9,1022.3,306.5,1.6,3.6,310.5,0.00,2.4,6.9,"02:40:08",1
"23/12/28","03:00",0.0,3.0,92.9,1021.8,303.2,0.6,1.7,314.9,0.00,2.0,6.8,"02:55:52",1
"23/12/28","03:10",0.0,2.7,93.0,1022.0,322.9,1.5,2.2,332.9,0.00,1.7,6.9,"03:05:28",1
"23/12/28","03:20",0.0,2.6,93.0,1022.3,336.8,0.2,1.0,285.1,0.00,1.6,6.9,"03:10:02",1
"23/12/28","03:30",0.0,2.4,93.2,1022.0,282.8,1.6,2.1,309.0,0.00,1.5,6.8,"03:28:20",1
"23/12/28","03:40",0.0,2.5,93.2,1021.8,311.7,1.8,2.5,313.6,0.00,1.6,7.0,"03:31:08",1
"23/12/28","03:50",0.0,2.2,93.4,1021.8,303.8,1.3,1.9,335.6,0.00,1.3,6.7,"03:49:20",1
"23/12/28","04:00",0.0,1.9,93.4,1021.5,319.9,1.6,2.4,330.8,0.00,1.0,6.7,"03:50:56",1
"23/12/28","04:10",0.0,1.5,93.7,1021.8,296.2,1.3,1.8,309.3,0.00,0.6,6.8,"04:09:44",1
"23/12/28","04:20",0.0,1.9,94.0,1021.5,291.5,1.8,2.4,307.5,0.00,1.1,6.8,"04:14:32",1
"23/12/28","04:30",0.0,2.0,94.2,1021.5,294.2,1.7,3.4,324.7,0.00,1.2,6.7,"04:29:54",1
"23/12/28","04:40",0.0,2.4,94.3,1021.3,312.2,2.7,4.0,334.2,0.00,1.6,6.7,"04:31:58",1
"23/12/28","04:50",0.0,2.4,94.4,1021.3,325.2,2.6,3.7,331.7,0.00,1.6,6.7,"04:47:18",1
"23/12/28","05:00",0.0,2.3,94.5,1021.5,325.0,2.3,3.7,332.3,0.00,1.5,6.5,"04:57:56",1
"23/12/28","05:10",0.0,2.3,94.6,1021.5,325.6,2.6,3.6,338.6,0.00,1.6,6.5,"05:02:12",1
"23/12/28","05:20",0.0,2.3,94.6,1022.0,318.5,2.5,4.2,334.6,0.00,1.6,6.5,"05:15:32",1
"23/12/28","05:30",0.0,2.3,94.7,1021.8,299.8,2.1,3.9,315.8,0.00,1.6,6.6,"05:28:08",1
"23/12/28","05:40",0.0,2.3,94.7,1021.5,304.9,2.8,4.0,325.7,0.00,1.6,6.7,"05:31:10",1
"23/12/28","05:50",0.0,2.1,94.7,1021.5,300.9,2.1,3.3,312.3,0.00,1.4,6.5,"05:43:24",1
"23/12/28","06:00",0.0,1.8,94.7,1021.5,303.8,1.7,3.3,324.9,0.00,1.1,6.7,"05:55:06",1
"23/12/28","06:10",0.0,1.1,94.9,1021.8,310.1,1.2,2.1,317.5,0.00,0.4,6.3,"06:02:24",1
"23/12/28","06:20",0.0,0.7,95.1,1021.8,307.4,1.3,2.7,320.2,0.00,0.0,6.6,"06:19:36",1
"23/12/28","06:30",0.0,0.6,95.3,1022.3,325.2,1.6,2.2,322.5,0.00,0.0,6.4,"06:28:32",1
"23/12/28","06:40",0.0,0.7,95.4,1021.5,316.6,1.7,2.1,324.3,0.00,0.1,6.5,"06:35:04",1
"23/12/28","06:50",0.0,1.2,95.5,1021.3,288.3,1.7,3.1,310.3,0.00,0.6,6.6,"06:48:56",1
"23/12/28","07:00",0.0,1.6,95.5,1021.8,293.6,2.1,2.9,326.6,0.00,1.0,6.5,"06:53:38",1
"23/12/28","07:10",0.0,1.5,95.5,1021.5,310.7,2.0,3.2,327.4,0.00,0.9,6.6,"07:05:42",1
"23/12/28","07:20",0.0,0.6,95.7,1021.5,315.7,2.0,2.5,332.7,0.00,0.0,6.5,"07:10:16",1
"23/12/28","07:30",0.0,0.4,96.0,1021.3,322.7,1.7,2.1,326.2,0.00,-0.1,6.5,"07:20:56",1
"23/12/28","07:40",0.0,0.8,96.2,1021.5,302.9,1.3,2.7,287.5,0.00,0.3,6.2,"07:39:36",1
"23/12/28","07:50",0.0,1.6,96.1,1021.8,302.1,2.2,3.7,309.9,0.00,1.1,6.2,"07:48:34",1
"23/12/28","08:00",0.0,2.0,96.0,1021.5,304.1,1.8,2.8,324.3,0.01,1.5,6.0,"07:50:08",1
"23/12/28","08:10",0.0,2.0,96.0,1021.5,309.5,1.7,3.1,338.0,0.02,1.5,6.4,"08:07:28",1
"23/12/28","08:20",0.0,2.0,96.0,1021.3,276.1,0.5,1.3,318.0,0.04,1.5,6.5,"08:10:08",1
"23/12/28","08:30",0.0,1.9,96.2,1021.8,311.8,2.2,3.1,321.7,0.09,1.4,6.3,"08:28:40",1
"23/12/28","08:40",0.0,2.5,96.4,1022.0,317.1,2.5,3.3,323.3,0.12,2.0,6.3,"08:32:48",1
"23/12/28","08:50",0.0,3.6,96.3,1022.0,302.5,1.6,2.9,316.8,0.17,3.1,6.4,"08:40:40",1
"23/12/28","09:00",0.0,4.6,95.7,1022.0,273.7,0.8,1.3,304.7,0.18,4.0,6.3,"08:52:00",1
"23/12/28","09:10",0.0,4.6,95.3,1022.5,127.5,0.3,0.9,109.7,0.21,4.0,6.1,"09:02:48",1
"23/12/28","09:20",0.0,5.0,94.6,1022.7,105.6,0.5,1.1,133.9,0.24,4.2,6.3,"09:19:36",1
"23/12/28","09:30",0.0,5.7,93.7,1023.2,117.8,0.5,1.1,138.0,0.27,4.8,6.2,"09:22:56",1
"23/12/28","09:40",0.0,6.5,92.2,1023.2,277.1,0.6,1.3,143.4,0.31,5.4,6.4,"09:30:48",1
"23/12/28","09:50",0.0,7.1,89.8,1023.4,304.8,0.6,1.2,114.2,0.30,5.6,6.7,"09:41:12",1
"23/12/28","10:00",0.0,7.7,87.2,1023.9,273.8,0.8,1.6,303.1,0.32,5.7,6.4,"09:54:06",1
"23/12/28","10:10",0.0,8.3,83.8,1023.2,243.2,0.7,1.6,216.0,0.34,5.8,6.5,"10:04:40",1
"23/12/28","10:20",0.0,8.7,80.4,1023.2,215.9,0.6,1.3,238.6,0.37,5.6,6.7,"10:11:40",1
"23/12/28","10:30",0.0,8.4,77.6,1022.7,256.1,0.5,1.1,210.5,0.22,4.8,6.6,"10:26:06",1
"23/12/28","10:40",0.0,8.8,76.9,1022.7,259.4,0.7,1.3,180.3,0.24,5.0,6.6,"10:38:36",1
"23/12/28","10:50",0.0,9.3,74.8,1022.5,269.1,0.7,1.8,242.0,0.28,5.1,6.7,"10:43:22",1
"23/12/28","11:00",0.0,9.3,73.5,1022.5,277.4,0.8,1.6,293.9,0.18,4.9,7.0,"10:57:36",1
"23/12/28","11:10",0.0,9.8,73.4,1022.3,274.9,0.7,1.7,325.5,0.33,5.3,7.1,"11:06:30",1
"23/12/28","11:20",0.0,10.5,70.3,1022.0,286.9,0.8,1.8,228.0,0.45,5.4,6.8,"11:18:24",1
"23/12/28","11:30",0.0,11.0,67.7,1021.5,241.6,0.8,1.4,246.4,0.45,5.3,7.2,"11:29:20",1
"23/12/28","11:40",0.0,11.0,64.9,1021.5,269.5,1.0,1.9,247.7,0.45,4.7,7.2,"11:31:12",1
"23/12/28","11:50",0.0,11.6,62.9,1021.3,123.7,0.7,1.7,355.6,0.45,4.8,7.2,"11:42:56",1
"23/12/28","12:00",0.0,11.7,58.4,1021.1,239.6,1.3,3.5,241.4,0.46,3.9,7.4,"11:56:00",1
"23/12/28","12:10",0.0,12.1,56.5,1020.6,216.4,1.6,4.2,206.7,0.46,3.8,7.4,"12:03:12",1
"23/12/28","12:20",0.0,12.1,55.4,1020.1,169.7,1.3,3.5,106.5,0.46,3.5,7.4,"12:17:44",1
"23/12/28","12:30",0.0,12.1,56.0,1020.1,130.5,1.2,2.6,159.3,0.45,3.6,7.7,"12:29:36",1
"23/12/28","12:40",0.0,13.1,56.1,1019.7,201.8,1.2,2.5,199.4,0.45,4.6,7.7,"12:31:20",1
"23/12/28","12:50",0.0,13.4,53.1,1019.7,203.6,0.8,2.2,131.7,0.44,4.1,7.7,"12:49:04",1
"23/12/28","13:00",0.0,13.2,53.8,1019.4,153.7,1.5,2.6,112.2,0.45,4.1,7.8,"12:52:40",1
"23/12/28","13:10",0.0,13.5,53.5,1019.4,169.8,1.3,3.2,162.4,0.44,4.3,8.2,"13:01:20",1
"23/12/28","13:20",0.0,13.3,53.1,1019.2,156.9,1.3,3.7,123.9,0.41,4.0,8.2,"13:16:08",1
"23/12/28","13:30",0.0,13.6,52.9,1019.2,195.6,1.5,2.9,197.6,0.39,4.2,8.2,"13:25:20",1
"23/12/28","13:40",0.0,14.1,52.1,1019.0,207.7,0.7,1.4,206.7,0.37,4.5,8.2,"13:34:16",1
"23/12/28","13:50",0.0,13.9,51.7,1018.7,175.7,1.0,2.1,123.6,0.36,4.2,8.4,"13:43:20",1
"23/12/28","14:00",0.0,14.3,51.6,1018.5,217.3,1.0,2.2,203.9,0.34,4.5,8.6,"13:54:08",1
"23/12/28","14:10",0.0,14.1,50.9,1018.5,175.0,1.2,2.2,142.0,0.33,4.1,8.6,"14:07:52",1
"23/12/28","14:20",0.0,14.0,51.2,1018.5,159.3,1.0,2.0,175.8,0.31,4.1,8.5,"14:15:28",1
"23/12/28","14:30",0.0,14.5,50.6,1018.7,224.0,0.8,1.9,183.3,0.29,4.4,8.7,"14:22:56",1
"23/12/28","14:40",0.0,14.3,49.7,1018.7,202.5,1.3,2.5,213.3,0.27,4.0,8.7,"14:38:48",1
"23/12/28","14:50",0.0,14.4,49.1,1018.7,197.1,1.1,2.8,243.8,0.25,3.9,8.7,"14:47:04",1
"23/12/28","15:00",0.0,14.7,48.5,1018.5,240.0,0.5,1.4,37.8,0.23,4.0,9.0,"14:50:02",1
"23/12/28","15:10",0.0,14.5,48.0,1018.7,173.6,1.0,2.2,110.5,0.20,3.7,9.2,"15:04:40",1
"23/12/28","15:20",0.0,14.4,48.4,1018.2,226.5,1.5,2.7,233.2,0.18,3.7,9.1,"15:18:56",1
"23/12/28","15:30",0.0,14.8,45.3,1018.5,253.5,0.8,2.4,351.8,0.15,3.1,9.1,"15:25:20",1
"23/12/28","15:40",0.0,14.0,49.1,1018.2,223.6,1.8,3.3,235.8,0.10,3.5,9.1,"15:34:32",1
"23/12/28","15:50",0.0,13.1,51.0,1018.2,227.7,1.2,2.7,242.1,0.03,3.2,9.1,"15:49:24",1
"23/12/28","16:00",0.0,13.3,51.5,1018.2,244.0,1.3,2.5,246.3,0.07,3.6,9.2,"15:59:24",1
"23/12/28","16:10",0.0,12.6,52.8,1018.2,232.0,1.5,2.1,243.2,0.03,3.3,9.2,"16:01:16",1
"23/12/28","16:20",0.0,11.9,56.2,1018.2,247.0,1.6,2.7,239.1,0.00,3.5,9.2,"16:11:56",1
"23/12/28","16:30",0.0,11.2,60.0,1018.0,255.7,1.8,2.9,253.0,0.00,3.8,9.2,"16:28:38",1
"23/12/28","16:40",0.0,10.7,62.0,1018.0,301.4,1.7,2.4,324.8,0.00,3.8,9.1,"16:37:04",1
"23/12/28","16:50",0.0,10.2,64.7,1018.2,329.9,2.0,2.5,342.3,0.00,3.9,9.3,"16:42:48",1
"23/12/28","17:00",0.0,9.7,67.4,1018.2,328.9,2.0,2.8,336.2,0.00,4.0,9.1,"16:56:08",1
"23/12/28","17:10",0.0,9.2,69.0,1018.0,330.6,1.7,2.4,336.0,0.00,3.9,9.0,"17:04:32",1
"23/12/28","17:20",0.0,8.7,70.4,1018.2,312.1,1.7,2.6,328.2,0.00,3.7,9.1,"17:10:56",1
"23/12/28","17:30",0.0,8.4,71.4,1018.5,294.4,1.8,3.1,310.3,0.00,3.6,9.0,"17:21:04",1
"23/12/28","17:40",0.0,8.2,72.2,1018.5,285.6,1.8,2.6,276.8,0.00,3.5,8.8,"17:33:52",1
"23/12/28","17:50",0.0,7.9,73.1,1018.2,305.4,2.2,3.1,314.7,0.00,3.4,8.8,"17:48:00",1
"23/12/28","18:00",0.0,7.5,74.1,1018.2,292.0,2.2,2.8,288.0,0.00,3.2,8.9,"17:58:00",1
"23/12/28","18:10",0.0,7.3,75.0,1018.2,298.7,2.6,3.5,320.8,0.00,3.2,9.0,"18:05:12",1
"23/12/28","18:20",0.0,7.3,75.7,1018.5,304.9,2.5,4.0,321.3,0.00,3.3,8.8,"18:14:56",1
"23/12/28","18:30",0.0,6.9,76.3,1018.2,314.3,2.5,3.2,318.2,0.00,3.1,8.8,"18:21:36",1
"23/12/28","18:40",0.0,6.5,77.1,1018.2,300.6,1.7,2.1,303.6,0.00,2.8,8.5,"18:33:20",1
"23/12/28","18:50",0.0,6.2,77.9,1018.5,320.0,1.7,2.7,325.8,0.00,2.7,8.7,"18:43:12",1
"23/12/28","19:00",0.0,5.7,78.6,1018.2,113.0,0.5,1.6,294.2,0.00,2.3,8.4,"18:59:48",1
"23/12/28","19:10",0.0,5.8,79.6,1018.5,294.1,2.0,3.3,333.4,0.00,2.6,8.4,"19:09:30",1
"23/12/28","19:20",0.0,5.1,80.3,1018.5,323.3,2.1,2.8,337.0,0.00,2.0,8.7,"19:10:42",1
"23/12/28","19:30",0.0,5.1,81.7,1018.5,315.4,2.0,2.8,315.0,0.00,2.3,8.5,"19:22:54",1
"23/12/28","19:40",0.0,5.3,82.8,1018.2,310.9,1.8,2.4,312.8,0.00,2.7,8.5,"19:37:56",1
"23/12/28","19:50",0.0,5.0,83.3,1018.5,316.6,1.7,2.0,327.2,0.00,2.4,8.3,"19:40:10",1
"23/12/28","20:00",0.0,5.1,84.1,1018.2,268.9,1.2,1.2,268.9,0.00,2.7,8.2,"19:53:44",1
"23/12/28","20:10",0.0,5.1,84.6,1018.0,336.7,2.0,2.4,336.2,0.00,2.8,8.3,"20:07:52",1
"23/12/28","20:20",0.0,4.6,85.0,1018.0,319.9,2.0,2.5,324.7,0.00,2.3,8.2,"20:14:44",1
"23/12/28","20:30",0.0,4.7,85.6,1017.5,340.1,1.1,2.0,324.4,0.00,2.5,8.0,"20:21:24",1
"23/12/28","20:40",0.0,4.6,85.9,1017.8,289.0,1.1,2.1,303.3,0.00,2.5,8.2,"20:30:02",1
"23/12/28","20:50",0.0,3.9,86.3,1017.8,327.6,1.8,2.6,313.9,0.00,1.9,8.0,"20:40:16",1
"23/12/28","21:00",0.0,3.3,86.8,1017.8,310.0,1.6,2.5,338.9,0.00,1.4,7.9,"20:51:04",1
"23/12/28","21:10",0.0,3.2,87.5,1017.3,284.0,0.6,1.1,307.4,0.00,1.4,7.9,"21:03:00",1
"23/12/28","21:20",0.0,3.1,88.0,1017.1,300.3,0.7,1.7,308.6,0.00,1.3,7.8,"21:12:58",1
"23/12/28","21:30",0.0,3.0,88.8,1017.5,334.3,2.0,3.1,331.9,0.00,1.4,7.9,"21:26:36",1
"23/12/28","21:40",0.0,2.9,89.3,1017.8,300.1,1.2,1.9,330.8,0.00,1.4,7.9,"21:31:28",1
"23/12/28","21:50",0.0,3.1,89.9,1017.5,292.4,1.2,2.0,317.3,0.00,1.6,7.7,"21:46:26",1
"23/12/28","22:00",0.0,3.2,90.3,1017.5,305.8,1.3,2.1,321.6,0.00,1.8,7.7,"21:52:16",1
"23/12/28","22:10",0.0,3.2,90.8,1017.5,306.7,1.2,2.0,322.3,0.00,1.9,7.5,"22:00:24",1
"23/12/28","22:20",0.0,3.7,91.3,1017.8,294.4,1.2,1.4,315.3,0.00,2.5,7.5,"22:13:24",1
"23/12/28","22:30",0.0,4.4,91.3,1017.5,308.7,1.3,1.7,269.0,0.00,3.1,7.4,"22:26:28",1
"23/12/28","22:40",0.0,4.0,91.2,1017.5,318.6,1.8,2.9,320.9,0.00,2.7,7.6,"22:33:46",1
"23/12/28","22:50",0.0,3.5,91.6,1017.8,311.5,1.8,2.6,335.2,0.00,2.3,7.6,"22:48:40",1
"23/12/28","23:00",0.0,3.4,91.9,1017.5,301.9,1.5,2.6,329.8,0.00,2.3,7.3,"22:50:16",1
"23/12/28","23:10",0.0,3.5,92.1,1017.8,285.8,1.3,2.0,322.2,0.00,2.4,7.6,"23:09:14",1
"23/12/28","23:20",0.0,3.5,92.2,1017.5,290.9,0.8,1.7,316.5,0.00,2.4,7.3,"23:11:20",1
"23/12/28","23:30",0.0,3.7,92.4,1017.8,307.3,1.3,1.7,287.4,0.00,2.6,7.5,"23:29:22",1
"23/12/28","23:40",0.0,3.7,92.5,1017.8,294.7,1.0,1.8,308.8,0.00,2.6,7.5,"23:32:18",1
"23/12/28","23:50",0.0,3.7,92.6,1017.8,310.3,1.6,2.2,313.6,0.00,2.7,7.4,"23:44:16",1
"23/12/28","24:00",0.0,3.6,92.8,1017.8,301.9,1.3,1.7,307.2,0.00,2.6,7.3,"23:56:08",1
